Location: Campillo
(40.8621°N, 4.2488°W)
Time: 12:29:48
(UTC+00:00)

SPOT 5 - Visible Passes

Search period start: 20 September 2021 00:00
Search period end: 30 September 2021 00:00
Orbit: 623 x 814 km, 98.2° (Epoch: 20 September)

Date Brightness Start Highest point End Pass type
(mag) Time Alt. Az. Time Alt. Az. Time Alt. Az.
20 Sep 5.2 20:38:37 14° NE 20:38:37 14° NE 20:39:50 10° NNE visible
20 Sep 5.5 22:17:52 18° NNW 22:17:52 18° NNW 22:19:14 10° NNW visible
21 Sep 5.1 21:27:08 20° N 21:27:08 20° N 21:28:48 10° N visible
22 Sep 5.3 20:36:25 13° NNE 20:36:25 13° NNE 20:37:16 10° NNE visible
22 Sep 5.6 22:15:39 17° NNW 22:15:39 17° NNW 22:16:48 10° NNW visible
23 Sep 5.3 21:24:56 18° N 21:24:56 18° N 21:26:20 10° N visible
24 Sep 5.4 20:34:13 11° NNE 20:34:13 11° NNE 20:34:41 10° NNE visible
24 Sep 5.7 22:13:27 15° NNW 22:13:27 15° NNW 22:14:21 10° NNW visible
25 Sep 5.4 21:22:44 16° N 21:22:44 16° N 21:23:50 10° N visible
26 Sep 5.5 20:32:02 10° NNE 20:32:02 10° NNE 20:32:04 10° NNE visible
26 Sep 5.8 22:11:15 14° NNW 22:11:15 14° NNW 22:11:54 10° NNW visible
27 Sep 5.5 21:20:33 14° N 21:20:33 14° N 21:21:20 10° N visible
28 Sep 5.9 22:09:04 12° NNW 22:09:04 12° NNW 22:09:27 10° NNW visible
29 Sep 5.6 21:18:21 12° N 21:18:21 12° N 21:18:49 10° N visible
